Hourly Data Report for July 08, 2021

WRIGLEY A
NORTHWEST TERRITORIES
Current Station Operator: NAVCAN

63°12'35.000" N
123°26'12.000" W
149.70 m
2204005
YWY

Download Data

Hourly Data (July 2021)
Hourly Data Report for July 8, 2021
TIME
LST
Temp Definition
°C
Dew Point Definition
°C
Rel Hum Definition
%
Precip. Amount Definition
mm

Wind Dir Definition
10's deg

Wind Spd Definition
km/h
Visibility Definition
km
Stn Press Definition
kPa
Hmdx Definition


Wind Chill Definition


Weather Definition


00:00 15.3 14.4 95 LegendMM 29 5 LegendMM 98.48     LegendNANA
01:00 14.7 14.3 98 LegendMM 33 4 LegendMM 98.56     LegendNANA
02:00 15.0 14.3 96 LegendMM 33 8 LegendMM 98.61     LegendNANA
03:00 LegendMM LegendMM LegendMM LegendMM LegendMM LegendMM LegendMM LegendMM     LegendNANA
04:00 LegendMM LegendMM LegendMM LegendMM LegendMM LegendMM LegendMM LegendMM     LegendNANA
05:00 13.2 13.0 99 LegendMM 34 6 LegendMM 98.83     LegendNANA
06:00 13.8 12.9 94 LegendMM 31 11 LegendMM 98.88     LegendNANA
07:00 14.5 13.2 92 LegendMM 31 13 LegendMM 98.95     LegendNANA
08:00 15.9 13.5 86 LegendMM 35 9 LegendMM 98.96     LegendNANA
09:00 17.0 13.8 82 LegendMM 31 8 LegendMM 98.98     LegendNANA
10:00 17.8 13.4 76 LegendMM 31 13 LegendMM 98.99     LegendNANA
11:00 18.8 12.8 68 LegendMM 30 13 LegendMM 98.99     LegendNANA
12:00 20.5 13.3 63 LegendMM 31 10 LegendMM 98.98     LegendNANA
13:00 21.6 12.4 55 LegendMM 27 8 LegendMM 98.95     LegendNANA
14:00 21.9 13.9 60 LegendMM 33 4 LegendMM 98.97 25   LegendNANA
15:00 22.8 13.0 53 LegendMM 20 5 LegendMM 98.97 26   LegendNANA
16:00 24.1 13.6 51 LegendMM 30 2 LegendMM 98.99 27   LegendNANA
17:00 24.2 12.7 48 LegendMM 13 9 LegendMM 98.94 27   LegendNANA
18:00 24.1 13.3 50 LegendMM 19 6 LegendMM 98.94 27   LegendNANA
19:00 24.5 13.9 51 LegendMM 18 5 LegendMM 98.90 28   LegendNANA
20:00 24.4 12.6 47 LegendMM 12 10 LegendMM 98.89 27   LegendNANA
21:00 23.7 12.5 49 LegendMM 12 12 LegendMM 98.90 26   LegendNANA
22:00 21.2 13.3 60 LegendMM 16 10 LegendMM 98.91     LegendNANA
23:00 21.1 12.8 58 LegendMM 16 13 LegendMM 98.91     LegendNANA

Notes on Data Quality.

Legend

  • E = Estimated
  • M = Missing
  • NA = Not Available*
  • [empty] = Indicates an unobserved value
Date modified: